Location: Paris
(48.6709°N, 2.3750°E)
Time: 00:57:57
(UTC+02:00)

LO-87 - Pass Details

Date: 28 June 2022
Orbit: 450 x 466 km, 97.4° (Epoch: 18 August)

Event Time Altitude Azimuth Distance (km) Brightness Sun altitude
Exits shadow 23:52:23 - 93° (E) 1,861 ? -13.1°
Reaches altitude 10° 23:53:57 10° 70° (ENE) 1,613 ? -13.2°
Maximum altitude 23:54:35 10° 60° (ENE) 1,590 ? -13.3°
Drops below altitude 10° 23:55:13 10° 49° (NE) 1,618 ? -13.3°
Sets 23:58:55 0° 8° (N) 2,508 ? -13.6°
